Westport Rt 88 MA US MAEOT current weather conditions

sailwx.info

Last reported at 2020-Jan-25 11:05 UTC.
Time now 2020-Jan-25 11:45 UTC

Location: N 41°31' W 071°04'.
View on Google Maps.

See reports from other nearby stations

  
Tides and Currents Weather Stations Pressure Air Temp Water Temp Dewpoint Dewpoint Depression Visibility Wind Speed Wind Dir Waves Ship Positions
date/time (UTC)wind fromknots sea level pressurealtimeterstation pressurevisibilityair tempwater tempwave heightnotes
2020-Jan-25 11:05
2020-Jan-25 11:00 064 8 2.7
2020-Jan-25 10:55 064 8 2.6
2020-Jan-25 10:50 064 8 2.4
2020-Jan-25 10:45 064 8 2.3
2020-Jan-25 10:40 056 7 2.3
2020-Jan-25 10:35 056 7 2.3
2020-Jan-25 10:30 056 7 2.3
2020-Jan-25 10:25 056 7 2.2
2020-Jan-25 10:20 056 7 2.1
2020-Jan-25 10:15 056 7 2.2
2020-Jan-25 10:10 056 7 2.0
2020-Jan-25 10:05 056 7 2.1
2020-Jan-25 10:00 056 7 1.9
2020-Jan-25 09:55 056 7 2.0
2020-Jan-25 09:50 056 7 1.8
2020-Jan-25 09:45 056 7 1.7
2020-Jan-25 09:40 060 6 1.8
2020-Jan-25 09:35 060 6 1.6
2020-Jan-25 09:30
2020-Jan-25 09:25 060 6 1.5
2020-Jan-25 09:20 060 6 1.3
2020-Jan-25 09:15 060 6 1.2
2020-Jan-25 09:10 060 6 1.2
2020-Jan-25 09:05 060 6 1.1
2020-Jan-25 09:00 060 6 0.9
2020-Jan-25 08:55 060 6 0.8
2020-Jan-25 08:50 060 6 0.6
2020-Jan-25 08:45 060 6 0.7
2020-Jan-25 08:40 052 6 0.7
2020-Jan-25 08:35 052 6 0.6
2020-Jan-25 08:30 052 6 0.5
2020-Jan-25 08:25 052 6 0.5
2020-Jan-25 08:20
2020-Jan-25 08:15 052 6 0.5
2020-Jan-25 08:10 050 6 0.4
2020-Jan-25 08:05 050 6 0.5
2020-Jan-25 08:00 050 6 0.6
2020-Jan-25 07:55 050 6 0.7
2020-Jan-25 07:50 050 6 0.5
2020-Jan-25 07:45 050 6 0.6
2020-Jan-25 07:40 050 6 0.8
2020-Jan-25 07:35 050 6 0.9
2020-Jan-25 07:30 050 6 1.0
2020-Jan-25 07:25 050 6 0.9
2020-Jan-25 07:20 050 6 0.9
2020-Jan-25 07:15
2020-Jan-25 07:10 050 6 1.1
2020-Jan-25 07:05 056 6 1.2
2020-Jan-25 07:00 056 6 1.2
2020-Jan-25 06:55 056 6 1.4
2020-Jan-25 06:50 056 6 1.5
2020-Jan-25 06:45 056 6 1.2
2020-Jan-25 06:40 064 5 1.3
2020-Jan-25 06:35 064 5 1.3
2020-Jan-25 06:30 064 5 1.4
2020-Jan-25 06:25 064 5 1.4
2020-Jan-25 06:20 064 5 1.6
2020-Jan-25 06:10 064 5 1.1
2020-Jan-25 06:05 054 6 1.3
2020-Jan-25 06:00 054 6 1.3
2020-Jan-25 05:55 054 6 1.2
2020-Jan-25 05:50 054 6 1.2
2020-Jan-25 05:45 054 6 1.4
2020-Jan-25 05:40 044 6 1.2
2020-Jan-25 05:35 044 6 0.9
2020-Jan-25 05:30 044 6 0.8
2020-Jan-25 05:25 044 6 0.5
2020-Jan-25 05:20 044 6 0.6
2020-Jan-25 05:15
2020-Jan-25 05:10 044 6 0.5
2020-Jan-25 05:05 044 6 0.5
2020-Jan-25 05:00 044 6 0.6
2020-Jan-25 04:55 044 6 0.6
2020-Jan-25 04:50 044 6 0.7
2020-Jan-25 04:45 044 6 0.8
2020-Jan-25 04:40
2020-Jan-25 04:35 046 5 0.7
2020-Jan-25 04:30 046 5 0.7
2020-Jan-25 04:25 046 5 0.9
2020-Jan-25 04:20 046 5 1.0
2020-Jan-25 04:15
2020-Jan-25 04:10 046 5 1.1
2020-Jan-25 04:05 046 5 1.2
2020-Jan-25 04:00 048 5 1.3
2020-Jan-25 03:55 048 5 1.4
2020-Jan-25 03:50 048 5 1.5
2020-Jan-25 03:45 048 5 1.5
2020-Jan-25 03:40 046 5 1.8
2020-Jan-25 03:35 046 5 1.9
2020-Jan-25 03:30 046 5 1.9
2020-Jan-25 03:25 046 5 1.9
2020-Jan-25 03:20 046 5 1.8
2020-Jan-25 03:15 046 5 1.8
2020-Jan-25 03:10 046 5 1.6
2020-Jan-25 03:05 064 5 1.6
2020-Jan-25 03:00 064 5 1.3
2020-Jan-25 02:55 064 5 1.2
2020-Jan-25 02:50 064 5 1.1
2020-Jan-25 02:45 064 5 1.0
2020-Jan-25 02:40 062 4 1.0
2020-Jan-25 02:35 062 4 1.0
2020-Jan-25 02:30 062 4 0.7
2020-Jan-25 02:25
2020-Jan-25 02:20 062 4 0.6
2020-Jan-25 02:15 062 4 0.6
2020-Jan-25 02:10 062 4 0.5
2020-Jan-25 02:05 054 6 0.4
2020-Jan-25 02:00 054 6 0.3
2020-Jan-25 01:55 054 6 0.1
2020-Jan-25 01:50 054 6 -0.0
2020-Jan-25 01:45 054 6 -0.2
2020-Jan-25 01:40 042 5 -0.2
2020-Jan-25 01:35 042 5 -0.4
2020-Jan-25 01:30 042 5 -0.3
2020-Jan-25 01:25
2020-Jan-25 01:15 042 5 -1.0
2020-Jan-25 01:10 042 5 -1.1
2020-Jan-25 01:05 042 5 -1.0
2020-Jan-25 01:00 056 6 -0.8
2020-Jan-25 00:55 056 6 -0.8
2020-Jan-25 00:50 056 6 -0.7
2020-Jan-25 00:45 056 6 -0.8
2020-Jan-25 00:40
2020-Jan-25 00:35
2020-Jan-25 00:30 056 5 -0.7
2020-Jan-25 00:25 056 5 -0.8
2020-Jan-25 00:20
2020-Jan-25 00:15 056 5 -0.6
2020-Jan-25 00:10 046 6 -0.3
2020-Jan-25 00:05 046 6 -0.4
2020-Jan-25 00:00 046 6 -0.4
2020-Jan-24 23:55 046 6 -0.5
2020-Jan-24 23:50 046 6 -0.4
2020-Jan-24 23:45 046 6 -0.3
2020-Jan-24 23:40 040 6 -0.2
2020-Jan-24 23:35 040 6 -0.2
2020-Jan-24 23:30 040 6 -0.1
2020-Jan-24 23:20 040 6 0.5
2020-Jan-24 23:15 040 6 0.1
2020-Jan-24 23:10 040 6 0.4
2020-Jan-24 23:05 054 6 0.6
2020-Jan-24 23:00 054 6 0.8
2020-Jan-24 22:55 054 6 1.3
2020-Jan-24 22:50 054 6 1.5
2020-Jan-24 22:45 054 6 1.5
2020-Jan-24 22:40 058 6 1.5
2020-Jan-24 22:35 058 6 1.7
2020-Jan-24 22:30 058 6 1.7
2020-Jan-24 22:25 058 6 2.0
2020-Jan-24 22:20 058 6 2.2
2020-Jan-24 22:15 058 6 2.3
2020-Jan-24 22:10
2020-Jan-24 22:05 052 7 2.6
2020-Jan-24 22:00 052 7 2.9
2020-Jan-24 21:55 052 7 3.0
2020-Jan-24 21:50 052 7 3.1
2020-Jan-24 21:45 052 7 3.3
2020-Jan-24 21:40 048 7 3.6
2020-Jan-24 21:35 048 7 4.0
2020-Jan-24 21:30 048 7 4.0
2020-Jan-24 21:25 048 7 4.3
2020-Jan-24 21:20
2020-Jan-24 21:15 048 7 4.8
2020-Jan-24 21:10 050 6 5.1
2020-Jan-24 21:05 050 6 5.5
2020-Jan-24 21:00 050 6 6.0
2020-Jan-24 20:55 050 6 6.2
2020-Jan-24 20:50 050 6 6.5
2020-Jan-24 20:45 050 6 6.4
2020-Jan-24 20:40 042 6 6.7
2020-Jan-24 20:35 042 6 7.4
2020-Jan-24 20:30 042 6 7.8
2020-Jan-24 20:25 042 6 8.6
2020-Jan-24 20:20 042 6 9.2
2020-Jan-24 20:15
2020-Jan-24 20:10 048 6 9.5
2020-Jan-24 20:05 048 6 9.4
2020-Jan-24 20:00 048 6 9.4
2020-Jan-24 19:55 048 6 9.4
2020-Jan-24 19:50 048 6 9.8
2020-Jan-24 19:45 048 6 10.5
2020-Jan-24 19:40 034 6 10.8
2020-Jan-24 19:35 034 6 11.4
2020-Jan-24 19:30 034 6 11.0
2020-Jan-24 19:25 034 6 11.7
2020-Jan-24 19:20 034 6 11.7
2020-Jan-24 19:15 034 6 11.0
2020-Jan-24 19:10 034 6 11.0
2020-Jan-24 19:05 058 6 10.4
2020-Jan-24 19:00 058 6 10.1
2020-Jan-24 18:55 058 6 10.0
2020-Jan-24 18:50 058 6 9.4
2020-Jan-24 18:45 058 6 8.9
2020-Jan-24 18:40 054 6 8.2
2020-Jan-24 18:35 054 6 7.6
2020-Jan-24 18:30 054 6 7.0
2020-Jan-24 18:25 054 6 7.3
2020-Jan-24 18:20 054 6 7.7
2020-Jan-24 18:10 054 6 7.8
2020-Jan-24 18:05 048 5 7.9
2020-Jan-24 18:00 048 5 8.0
2020-Jan-24 17:55 048 5 8.2
2020-Jan-24 17:50 048 5 8.8
2020-Jan-24 17:45 048 5 8.8
2020-Jan-24 17:40 034 4 9.6
2020-Jan-24 17:35 034 4 9.2
2020-Jan-24 17:30
2020-Jan-24 17:25 034 4 8.8
2020-Jan-24 17:20 034 4 8.1
2020-Jan-24 17:15 034 4 7.7
2020-Jan-24 17:10 034 4 8.3
2020-Jan-24 17:05 034 4 8.8
2020-Jan-24 17:00 034 4 9.3
2020-Jan-24 16:55 034 4 9.6
2020-Jan-24 16:50 034 4 10.0
2020-Jan-24 16:45 034 4 10.5
2020-Jan-24 16:40 034 4 10.6
2020-Jan-24 16:35 034 4 10.1
2020-Jan-24 16:30 034 4 10.5
2020-Jan-24 16:25 034 4 10.0
2020-Jan-24 16:20 034 4 10.7
2020-Jan-24 16:10 026 2 10.5
2020-Jan-24 16:05 026 2 10.5
2020-Jan-24 16:00 026 2 10.2
2020-Jan-24 15:55 026 2 10.2
2020-Jan-24 15:50 026 2 9.7
2020-Jan-24 15:45
2020-Jan-24 15:40 014 4 9.8
2020-Jan-24 15:35 014 4 9.5
2020-Jan-24 15:30
2020-Jan-24 15:25 014 4 10.3
2020-Jan-24 15:20 014 4 9.9
2020-Jan-24 15:10 022 1 8.7
2020-Jan-24 15:05 022 1 8.9
2020-Jan-24 15:00 022 1 8.9
2020-Jan-24 14:55 022 1 8.9
2020-Jan-24 14:50 022 1 8.4
2020-Jan-24 14:45 022 1 8.0
2020-Jan-24 14:40 010 1 7.5
2020-Jan-24 14:35 010 1 7.3
2020-Jan-24 14:30 010 1 7.3
2020-Jan-24 14:25 010 1 6.9
2020-Jan-24 14:20 010 1 6.4
2020-Jan-24 14:10 010 1 6.0
2020-Jan-24 14:05 022 1 5.5
2020-Jan-24 14:00 022 1 5.7
2020-Jan-24 13:55 022 1 5.4
2020-Jan-24 13:50
2020-Jan-24 13:45 022 1 4.9
2020-Jan-24 13:40 010 1 4.7
2020-Jan-24 13:35 010 1 4.1
2020-Jan-24 13:30 010 1 3.7
2020-Jan-24 13:25 010 1 2.2
2020-Jan-24 13:20 010 1 2.2
2020-Jan-24 13:15
2020-Jan-24 13:10 028 1 1.3
2020-Jan-24 13:05 028 1 0.7
2020-Jan-24 13:00 028 1 -0.2
2020-Jan-24 12:55 028 1 -0.7
2020-Jan-24 12:50 028 1 -1.0
2020-Jan-24 12:45 028 1 -0.9
2020-Jan-24 12:40 -1.4
2020-Jan-24 12:35 -2.2
2020-Jan-24 12:30 -2.2
2020-Jan-24 12:25 -2.0
2020-Jan-24 12:20
2020-Jan-24 12:15 -2.1
2020-Jan-24 12:10 -2.0
2020-Jan-24 12:05 006 1 -2.0
2020-Jan-24 12:00 006 1 -2.0
2020-Jan-24 11:55 006 1 -2.0
2020-Jan-24 11:50 006 1 -2.0
2020-Jan-24 11:45 006 1 -2.0
2020-Jan-24 11:40 006 0 -2.0
2020-Jan-24 11:35 006 0 -2.0
2020-Jan-24 11:30 006 0 -2.3
2020-Jan-24 11:25
2020-Jan-24 11:20 006 0 -2.0
2020-Jan-24 11:15
2020-Jan-24 11:10 006 0 -1.8
2020-Jan-24 11:05 026 0 -1.9
2020-Jan-24 11:00 026 0 -1.8
2020-Jan-24 10:55 026 0 -1.8
2020-Jan-24 10:50 026 0 -1.8
2020-Jan-24 10:45 026 0 -1.8
2020-Jan-24 10:40 014 0 -1.7
2020-Jan-24 10:35 014 0 -1.6
2020-Jan-24 10:30 014 0 -1.6
2020-Jan-24 10:25 014 0 -1.5
2020-Jan-24 10:20
2020-Jan-24 10:10
2020-Jan-24 10:05 340 1 -1.3
2020-Jan-24 10:00 340 1 -1.2
2020-Jan-24 09:55 340 1 -1.4
2020-Jan-24 09:50 340 1 -1.2
2020-Jan-24 09:45 340 1 -1.2
2020-Jan-24 09:40 294 0 -1.2
2020-Jan-24 09:35
2020-Jan-24 09:30 312 1 -1.3
2020-Jan-24 09:25 312 1 -1.1
2020-Jan-24 09:20
2020-Jan-24 09:15
2020-Jan-24 09:10 312 1 -1.0
2020-Jan-24 09:05
2020-Jan-24 09:00 312 1 -1.0
2020-Jan-24 08:55 312 1 -1.2
2020-Jan-24 08:50 312 1 -1.2
2020-Jan-24 08:45 312 1 -1.0
2020-Jan-24 08:40 344 0 -1.1
2020-Jan-24 08:35 344 0 -1.2
2020-Jan-24 08:30 344 0 -1.3
2020-Jan-24 08:20 344 0 -1.3
2020-Jan-24 08:15
2020-Jan-24 08:10 344 0 -1.3
2020-Jan-24 08:05 334 0 -1.4
2020-Jan-24 08:00 334 0 -1.4
2020-Jan-24 07:55 334 0 -0.9
2020-Jan-24 07:50 334 0 -0.9
2020-Jan-24 07:45 334 0 -0.9
2020-Jan-24 07:40 180 -0.7
2020-Jan-24 07:35 180 -0.7
2020-Jan-24 07:30 180 -0.7
2020-Jan-24 07:25 180 -0.7
2020-Jan-24 07:20 180 -0.7
2020-Jan-24 07:15
2020-Jan-24 07:10 180 -0.5
2020-Jan-24 07:05 344 0 -0.7
2020-Jan-24 07:00 344 0 -0.7
2020-Jan-24 06:55 344 0 -0.6
2020-Jan-24 06:50 344 0 -0.6
2020-Jan-24 06:45 344 0 -0.4
2020-Jan-24 06:40
2020-Jan-24 06:35 104 0 -0.2
2020-Jan-24 06:30 104 0 -0.2
2020-Jan-24 06:25 104 0 -0.4
2020-Jan-24 06:20
2020-Jan-24 06:10 068 1 -0.2
2020-Jan-24 06:05 068 1 -0.4
2020-Jan-24 06:00 068 1 -0.2
2020-Jan-24 05:55 068 1 -0.4
2020-Jan-24 05:50 068 1 -0.2
2020-Jan-24 05:45 068 1 -0.1
2020-Jan-24 05:40 066 0 -0.2
2020-Jan-24 05:35 066 0 0.1
2020-Jan-24 05:30 066 0 0.2
2020-Jan-24 05:25 066 0 0.4
2020-Jan-24 05:20 066 0 0.5
2020-Jan-24 05:10 066 0 0.6
2020-Jan-24 05:05 310 1 0.4
2020-Jan-24 05:00 310 1 0.3
2020-Jan-24 04:55 310 1 0.6
2020-Jan-24 04:50 310 1 0.5
2020-Jan-24 04:45 310 1 0.4
2020-Jan-24 04:40 270 1 0.3
2020-Jan-24 04:35 270 1 0.3
2020-Jan-24 04:30
2020-Jan-24 04:25 270 1 0.4
2020-Jan-24 04:20 270 1 0.4
2020-Jan-24 04:15
2020-Jan-24 04:10 270 1 0.5
2020-Jan-24 04:05 250 4 0.7
2020-Jan-24 04:00 250 4 0.8
2020-Jan-24 03:55 250 4 0.7
2020-Jan-24 03:50 250 4 0.7
2020-Jan-24 03:45 250 4 0.8
2020-Jan-24 03:40 236 4 0.8
2020-Jan-24 03:35 236 4 1.0
2020-Jan-24 03:30 236 4 0.9
2020-Jan-24 03:25 236 4 0.9
2020-Jan-24 03:20 236 4 0.8
2020-Jan-24 03:15
2020-Jan-24 03:10 236 4 1.1
2020-Jan-24 03:05 238 5 1.0
2020-Jan-24 03:00 238 5 1.0
2020-Jan-24 02:55 238 5 1.1
2020-Jan-24 02:50 238 5 1.2
2020-Jan-24 02:45 238 5 1.2
2020-Jan-24 02:40 220 4 1.2
2020-Jan-24 02:35 220 4 1.0
2020-Jan-24 02:30
2020-Jan-24 02:25 220 4 1.3
2020-Jan-24 02:20 220 4 1.5
2020-Jan-24 02:15 220 4 1.7
2020-Jan-24 02:10 220 4 1.7
2020-Jan-24 02:05 220 4 1.7
2020-Jan-24 02:00 230 4 1.7
2020-Jan-24 01:55 230 4 1.5
2020-Jan-24 01:50 230 4 1.5
2020-Jan-24 01:45 230 4 1.4
2020-Jan-24 01:40 240 2 1.4
2020-Jan-24 01:35 240 2 1.5
2020-Jan-24 01:30 240 2 1.5
2020-Jan-24 01:25 240 2 1.7
2020-Jan-24 01:20 240 2 2.0
2020-Jan-24 01:15 240 2 2.0
2020-Jan-24 01:10 240 2 2.2
2020-Jan-24 01:05 232 4 2.3
2020-Jan-24 01:00 232 4 2.3
2020-Jan-24 00:55 232 4 2.4
2020-Jan-24 00:50 232 4 2.5
2020-Jan-24 00:45 232 4 2.4
2020-Jan-24 00:40 226 4 2.5
2020-Jan-24 00:35 226 4 2.4
2020-Jan-24 00:30 226 4 2.3
2020-Jan-24 00:25 226 4 2.3
2020-Jan-24 00:15
2020-Jan-24 00:10 240 4 2.2
2020-Jan-24 00:05 240 4 2.1
2020-Jan-24 00:00 240 4 2.2
2020-Jan-23 23:55 240 4 2.0
2020-Jan-23 23:50 240 4 2.1
2020-Jan-23 23:45 240 4 2.2
2020-Jan-23 23:40 230 4 2.3
2020-Jan-23 23:35 230 4 2.2
2020-Jan-23 23:30 230 4 2.2
2020-Jan-23 23:25 230 4 2.2
2020-Jan-23 23:20 230 4 2.2
2020-Jan-23 23:15
2020-Jan-23 23:10 230 4 1.8
2020-Jan-23 23:05 228 6 1.8
2020-Jan-23 23:00 228 6 1.7
2020-Jan-23 22:55 228 6 1.8
2020-Jan-23 22:50 228 6 1.7
2020-Jan-23 22:45 228 6 1.7
2020-Jan-23 22:40 216 6 1.7
2020-Jan-23 22:35 216 6 1.8
2020-Jan-23 22:30 216 6 1.6
2020-Jan-23 22:25 216 6 1.7
2020-Jan-23 22:20 216 6 1.8
2020-Jan-23 22:15 216 6 1.9
2020-Jan-23 22:10 216 6 2.2
2020-Jan-23 22:05 216 6 2.1
2020-Jan-23 22:00 216 6 2.3
2020-Jan-23 21:55 216 6 2.5
2020-Jan-23 21:50 216 6 2.4
2020-Jan-23 21:45 216 6 2.4
2020-Jan-23 21:40 222 5 2.6
2020-Jan-23 21:35 222 5 2.6
2020-Jan-23 21:30 222 5 2.9
2020-Jan-23 21:25 222 5 2.8
2020-Jan-23 21:20 222 5 3.0
2020-Jan-23 21:15 228 6 2.8
2020-Jan-23 21:10 228 6 3.0
2020-Jan-23 21:05 228 6 3.2
2020-Jan-23 21:00 228 6 3.4
2020-Jan-23 20:55 228 6 3.5
2020-Jan-23 20:50 228 6 3.6
2020-Jan-23 20:45 228 6 3.7
2020-Jan-23 20:40 228 6 3.7
2020-Jan-23 20:35 228 6 3.9
2020-Jan-23 20:30 228 6 4.0
2020-Jan-23 20:25 228 6 4.0
2020-Jan-23 20:20
2020-Jan-23 20:15 228 6 4.2
2020-Jan-23 20:10 228 6 4.4
2020-Jan-23 20:05 226 7 4.4
2020-Jan-23 20:00 226 7 4.6
2020-Jan-23 19:55 226 7 4.7
2020-Jan-23 19:50 226 7 4.9
2020-Jan-23 19:45 226 7 5.3
2020-Jan-23 19:40 232 7 5.8
2020-Jan-23 19:35 232 7 6.4
2020-Jan-23 19:30 232 7 6.9
2020-Jan-23 19:25 232 7 7.2
2020-Jan-23 19:20 232 7 7.0
2020-Jan-23 19:15
2020-Jan-23 19:10 232 7 6.4
2020-Jan-23 19:05 236 8 6.6
2020-Jan-23 19:00 236 8 6.7
2020-Jan-23 18:55 236 8 6.9
2020-Jan-23 18:50 236 8 6.8
2020-Jan-23 18:45 236 8 6.9
2020-Jan-23 18:40 240 7 6.9
2020-Jan-23 18:35
2020-Jan-23 18:30 240 7 6.5
2020-Jan-23 18:25 240 7 6.3
2020-Jan-23 18:20 240 7 6.5
2020-Jan-23 18:10
2020-Jan-23 18:05 232 8 6.7
2020-Jan-23 18:00 232 8 6.6
2020-Jan-23 17:55 232 8 6.8
2020-Jan-23 17:50 232 8 6.8
2020-Jan-23 17:45 232 8 6.8
2020-Jan-23 17:40 238 8 6.4
2020-Jan-23 17:35 238 8 6.3
2020-Jan-23 17:30 238 8 6.0
2020-Jan-23 17:25 238 8 5.8
2020-Jan-23 17:20 238 8 5.8
2020-Jan-23 17:15
2020-Jan-23 17:10 238 8 6.0
2020-Jan-23 17:05 226 7 6.0
2020-Jan-23 17:00 226 7 5.8
2020-Jan-23 16:55 226 7 5.8
2020-Jan-23 16:50 226 7 5.7
2020-Jan-23 16:45
2020-Jan-23 16:40 216 6 6.0
2020-Jan-23 16:35 216 6 5.9
2020-Jan-23 16:25 216 6 5.8
2020-Jan-23 16:20 216 6 6.3
2020-Jan-23 16:10 216 6 6.8
2020-Jan-23 16:05 216 6 6.4
2020-Jan-23 16:00 224 5 6.2
2020-Jan-23 15:55 224 5 6.7
2020-Jan-23 15:50 224 5 6.3
2020-Jan-23 15:45 224 5 6.2
2020-Jan-23 15:40 234 4 6.2
2020-Jan-23 15:35 234 4 6.2
2020-Jan-23 15:30
2020-Jan-23 15:25 234 4 6.2
2020-Jan-23 15:20 234 4 6.1
2020-Jan-23 15:15
2020-Jan-23 15:10 252 4 5.8
2020-Jan-23 15:05 252 4 5.8
2020-Jan-23 15:00 252 4 5.7
2020-Jan-23 14:55 252 4 5.7
2020-Jan-23 14:50 252 4 5.7
2020-Jan-23 14:45 252 4 5.4
2020-Jan-23 14:40 256 2 5.0
2020-Jan-23 14:35 256 2 4.7
2020-Jan-23 14:30 256 2 4.7
2020-Jan-23 14:25
2020-Jan-23 14:20 256 2 4.4
2020-Jan-23 14:15
2020-Jan-23 14:10 256 2 4.1
2020-Jan-23 14:05 256 2 4.0
2020-Jan-23 14:00 256 2 4.4
2020-Jan-23 13:55 256 2 4.7
2020-Jan-23 13:50 256 2 3.8
2020-Jan-23 13:45 256 2 3.2
2020-Jan-23 13:40 238 1 3.3
2020-Jan-23 13:35 238 1 2.7
2020-Jan-23 13:30 238 1 2.6
2020-Jan-23 13:25 238 1 2.2
2020-Jan-23 13:20 238 1 0.9
2020-Jan-23 13:15
2020-Jan-23 13:10 238 1 -0.4
2020-Jan-23 13:05 202 2 -0.6
2020-Jan-23 13:00 202 2 -1.1
2020-Jan-23 12:55 202 2 -1.6
2020-Jan-23 12:50 202 2 -2.1
2020-Jan-23 12:45 202 2 -2.6
2020-Jan-23 12:40 222 1 -3.4
2020-Jan-23 12:35 222 1 -4.2
2020-Jan-23 12:30 222 1 -4.6
2020-Jan-23 12:25 222 1 -5.1
2020-Jan-23 12:20 222 1 -5.4
2020-Jan-23 12:15
2020-Jan-23 12:10 238 4 -5.3
2020-Jan-23 12:05 238 4 -5.2
2020-Jan-23 12:00 238 4 -5.3
2020-Jan-23 11:55 238 4 -5.2
2020-Jan-23 11:50 238 4 -5.4
2020-Jan-23 11:45 238 4 -5.2
2020-Jan-23 11:40 246 2 -5.4
2020-Jan-23 11:35 246 2 -5.3
2020-Jan-23 11:30 246 2 -5.2